This is the latest recevied weather packets stored in our database for station/object PY2FGD-13. If no packets are shown the sender has not sent any weather packets the latest 10 day(s).
| Time | Temp. | Humidity | Pressure | Rain* | Wind** | Luminosity | Snow |
|---|---|---|---|---|---|---|---|
| 1777387072 | 23.33° C | 76% | 1015.6 hPa | - | - | - | - |
| 1777385256 | 23.33° C | 76% | 1015.9 hPa | - | - | - | - |
| 1777384656 | 23.33° C | 76% | 1016.1 hPa | - | - | - | - |
| 1777379256 | 23.33° C | 77% | 1016.3 hPa | - | - | - | - |
| 1777375056 | 23.33° C | 79% | 1016 hPa | - | - | - | - |
| 1777374456 | 23.33° C | 79% | 1015.9 hPa | - | - | - | - |
| 1777364271 | 23.33° C | 76% | 1013.8 hPa | - | - | - | - |
| 1777360655 | 23.89° C | 76% | 1013.8 hPa | - | - | - | - |
| 1777359456 | 23.89° C | 76% | 1013.7 hPa | - | - | - | - |
| 1777351057 | 23.89° C | 76% | 1014.2 hPa | - | - | - | - |
| 1777348655 | 23.89° C | 77% | 1014.2 hPa | - | - | - | - |
| 1777345055 | 23.89° C | 77% | 1013.4 hPa | - | - | - | - |
| 1777342655 | 23.89° C | 78% | 1014.3 hPa | - | - | - | - |
| 1777341455 | 23.89° C | 80% | 1014.7 hPa | - | - | - | - |
| 1777334255 | 24.44° C | 85% | 1015.6 hPa | - | - | - | - |
| 1777333655 | 24.44° C | 84% | 1015.4 hPa | - | - | - | - |
| 1777331870 | 23.89° C | 83% | 1015.2 hPa | - | - | - | - |
| 1777325255 | 23.33° C | 84% | 1014.1 hPa | - | - | - | - |
| 1777324655 | 23.33° C | 84% | 1013.6 hPa | - | - | - | - |
| 1777321655 | 23.33° C | 84% | 1013.2 hPa | - | - | - | - |
| 1777320471 | 23.33° C | 84% | 1013.2 hPa | - | - | - | - |
| 1777316255 | 23.89° C | 88% | 1012.4 hPa | - | - | - | - |
| 1777312054 | 23.89° C | 91% | 1012.4 hPa | - | - | - | - |
| 1777311454 | 23.89° C | 91% | 1012.4 hPa | - | - | - | - |
| 1777300054 | 23.89° C | 86% | 1013.5 hPa | - | - | - | - |
* Rain since midnight (hover to see other rain measurements)
** Current wind speed in m/s (hover to see current wind gust speed)